Bookmark and Share
Track history (hours):
 

Em Athens

Last reported at 2014-Apr-17 18:32 UTC. Time now 2014-Apr-17 18:40 UTC.
Position N 49°28' E 000°09'.

; draft 10.2 m.

Type: Ship. MMSI: 538004019.

NotesDate/timePositionNaut miles runAvg speedWind from/ knotsBaromVisibWave heightAir tempDewpointWater temp
2014-Apr-17 18:32N 49°28' E 000°09'0 0.0
2014-Apr-17 17:32N 49°28' E 000°09'0 0.0
2014-Apr-17 16:32N 49°28' E 000°09'4 3.9
2014-Apr-17 15:33N 49°29' E 000°04'9 9.5
2014-Apr-17 14:33N 49°36' W 000°07'1514.5
2014-Apr-17 13:30N 49°51' W 000°09'1514.8
2014-Apr-17 12:29N 50°06' W 000°07'1212.9
2014-Apr-17 11:33N 50°18' W 000°05'1211.3
2014-Apr-17 10:30N 50°29' E 000°03'1212.4
2014-Apr-17 09:33N 50°32' E 000°20'1211.8
2014-Apr-17 08:33N 50°38' E 000°37'1212.2
2014-Apr-17 07:33N 50°44' E 000°53'1312.9
2014-Apr-17 06:33N 50°52' E 001°10'1312.8
2014-Apr-17 05:33N 51°00' E 001°25'1111.0
2014-Apr-17 04:33N 51°08' E 001°37'10 9.8
2014-Apr-17 03:33N 51°15' E 001°47'9 9.1
2014-Apr-17 02:33N 51°23' E 001°54'9 9.2
2014-Apr-17 01:33N 51°31' E 002°03'3611.6
2014-Apr-16 22:27N 51°57' E 002°43'1112.4
2014-Apr-16 21:33N 52°02' E 002°59'1312.7
2014-Apr-16 20:34N 52°03' E 003°19'1212.4
2014-Apr-16 19:33N 52°03' E 003°39'1111.0
2014-Apr-16 18:34N 52°02' E 003°57'6 4.4
2014-Apr-16 17:16N 51°57' E 004°03'0 0.0
2014-Apr-16 16:28N 51°57' E 004°03'0 0.0
2014-Apr-16 15:31N 51°57' E 004°03'0 0.0
2014-Apr-16 14:31N 51°57' E 004°03'0 0.0
2014-Apr-16 13:22N 51°57' E 004°03'0 0.0
2014-Apr-16 12:25N 51°57' E 004°03'0 0.0
2014-Apr-16 11:22N 51°57' E 004°03'0 0.0
2014-Apr-16 09:25N 51°57' E 004°03'0 0.0
2014-Apr-16 08:07N 51°58' E 004°03'0 0.0
2014-Apr-16 07:31N 51°58' E 004°03'0 0.0
2014-Apr-16 06:28N 51°58' E 004°03'0 0.0
2014-Apr-16 05:22N 51°57' E 004°03'0 0.0
2014-Apr-16 04:22N 51°57' E 004°03'0 0.0
2014-Apr-16 03:22N 51°57' E 004°03'0 0.0
2014-Apr-16 02:28N 51°57' E 004°03'0 0.0
2014-Apr-16 01:28N 51°57' E 004°03'0 0.0
2014-Apr-16 00:31N 51°57' E 004°03'0 0.0
2014-Apr-15 23:28N 51°57' E 004°03'0 0.0
2014-Apr-15 22:25N 51°58' E 004°03'0 0.0
2014-Apr-15 21:31N 51°57' E 004°03'0 0.0
2014-Apr-15 20:31N 51°57' E 004°03'0 0.0
2014-Apr-15 19:22N 51°57' E 004°03'0 0.0
2014-Apr-15 18:31N 51°58' E 004°03'0 0.1
2014-Apr-15 17:33N 51°58' E 004°03'3 2.6
2014-Apr-15 16:33N 51°60' E 004°01'1110.3
2014-Apr-15 15:30N 51°59' E 003°43'9 0.5
2014-Apr-14 22:31N 51°54' E 003°31'4 0.2
2014-Apr-13 22:33N 51°56' E 003°25'1110.6
2014-Apr-13 21:33N 51°52' E 003°08'2310.6
2014-Apr-13 19:24N 51°44' E 002°34'1011.6
2014-Apr-13 18:33N 51°37' E 002°23'1010.3
2014-Apr-13 17:33N 51°29' E 002°12'1010.2
2014-Apr-13 16:33N 51°22' E 002°01'1110.4
2014-Apr-13 15:32N 51°14' E 001°50'1110.7
2014-Apr-13 14:28N 51°05' E 001°38'5810.8
2014-Apr-13 09:07N 50°25' E 000°33'  
2014-Apr-09 15:05N 38°42' W 009°50'15 9.8
2014-Apr-09 13:31N 38°27' W 009°46'10 9.9
2014-Apr-09 12:33N 38°18' W 009°43'1010.3
2014-Apr-09 11:33N 38°08' W 009°41'1110.6
2014-Apr-09 10:32N 37°57' W 009°37'1111.1
2014-Apr-09 09:33N 37°47' W 009°34'1110.9
2014-Apr-09 08:33N 37°36' W 009°31'9 9.0
2014-Apr-09 07:33N 37°27' W 009°29'1110.8
2014-Apr-09 06:33N 37°17' W 009°26'1211.1
2014-Apr-09 05:28N 37°05' W 009°22'1011.0
2014-Apr-09 04:33N 36°55' W 009°19'1311.1
2014-Apr-09 03:20N 36°45' W 009°08'911.1
2014-Apr-09 02:33N 36°42' W 008°58'1111.0
2014-Apr-09 01:33N 36°39' W 008°45'1111.0
2014-Apr-09 00:33N 36°35' W 008°32'1110.9
2014-Apr-08 23:33N 36°32' W 008°19'1111.1
2014-Apr-08 22:33N 36°28' W 008°06'1111.2
2014-Apr-08 21:33N 36°24' W 007°53'1211.3
2014-Apr-08 20:32N 36°20' W 007°40'1111.0
2014-Apr-08 19:33N 36°17' W 007°27'1210.7
2014-Apr-08 18:28N 36°14' W 007°13'1210.7
2014-Apr-08 17:19N 36°11' W 006°59'1110.6
2014-Apr-08 16:15N 36°08' W 006°45'6511.4
2014-Apr-08 10:33N 36°01' W 005°25'9 9.1
2014-Apr-08 09:33N 36°05' W 005°15'10 9.7
2014-Apr-08 08:33N 36°05' W 005°03'  

Dump ship's entire track history

sailing weather and tide predictions

Em Athens — V7US8 — position and weather